GFSWCAN_925_rhum_048.txt.gz
RH
100 94 93 90 88 79 86 96 95 97 97 94 91 91 95 91 90 85 83 73 73 76 58 61 72 69 73 87 77 79 77 76 78 76 75 78 68 65 67 58 70 66 74 80 74 80 79 43 61 67 61 56 54 58
99 92 87 88 79 81 77 94 98 97 84 93 94 90 90 92 90 89 90 77 76 81 69 65 56 52 51 53 82 84 83 68 62 69 72 69 73 71 67 77 64 74 55 56 55 51 40 50 60 57 60 57 57 59
99 92 90 85 76 83 78 98 89 90 91 81 95 95 92 96 95 88 85 84 90 100 83 75 69 66 65 68 59 90 84 74 69 62 69 72 73 64 72 65 66 64 57 64 64 49 47 50 50 56 61 58 56 57
100 92 92 78 84 86 83 81 85 86 79 88 96 92 96 91 97 97 94 88 90 97 96 67 59 60 47 57 66 62 65 68 70 83 76 75 71 67 68 63 63 56 66 62 64 57 58 53 52 53 56 61 63 62
96 89 84 83 84 78 84 84 91 90 88 97 98 90 94 96 98 91 82 92 93 97 85 75 62 64 70 64 68 70 62 69 92 98 88 78 78 72 78 78 74 63 62 67 61 53 51 52 59 64 68 65 64 66
88 87 86 88 86 87 85 91 89 90 96 96 96 90 96 99 86 85 89 78 87 99 99 93 63 64 70 72 73 74 72 96 98 98 82 74 70 68 82 80 53 58 61 57 56 62 65 62 64 66 67 64 64 65
90 89 88 89 91 92 86 92 92 89 95 95 90 95 92 77 94 95 78 77 86 95 99 92 81 69 92 74 65 62 86 97 96 93 88 80 78 74 88 76 50 58 61 65 62 65 70 69 66 64 64 67 67 65
81 88 89 91 93 92 92 91 88 92 90 88 93 87 76 91 89 96 85 96 92 100 89 90 84 95 84 88 94 82 91 96 96 94 90 80 89 80 97 69 61 64 61 62 65 67 67 66 67 67 69 71 69 64
79 83 88 91 94 99 96 87 90 89 89 88 87 78 89 88 81 70 86 94 98 96 95 93 91 97 95 88 90 96 93 99 98 92 85 90 90 94 78 66 61 62 64 68 72 73 75 77 75 74 75 74 73 69
85 91 91 93 97 98 89 92 91 90 93 82 73 94 90 89 94 92 100 100 100 100 100 99 100 100 98 82 96 88 88 96 100 88 94 98 95 74 70 65 61 65 66 74 78 85 90 94 88 80 77 76 76 76
92 97 93 94 91 93 92 87 92 92 79 60 90 91 86 87 99 98 100 100 99 100 100 99 100 100 96 91 98 95 99 96 99 98 95 98 90 84 70 70 70 75 77 76 74 74 75 83 89 88 86 80 78 80
98 94 94 96 93 93 91 86 98 86 85 69 77 84 93 99 100 100 97 99 97 94 96 99 97 98 96 95 90 94 100 99 98 97 98 84 78 78 69 70 72 69 70 73 74 79 86 88 88 92 88 66 68 80
99 98 96 94 95 94 90 89 95 92 90 84 96 100 100 98 100 98 91 92 94 100 99 98 99 97 89 91 98 99 91 98 93 96 88 74 84 76 73 72 75 74 75 75 75 91 90 89 81 88 86 68 62 65
100 99 97 95 90 93 93 91 92 92 72 88 88 97 94 95 96 89 89 98 100 100 99 98 99 98 90 96 94 97 98 97 95 95 86 72 80 74 75 76 82 77 76 81 77 78 77 73 69 74 94 90 70 63
100 100 96 93 92 95 94 97 93 88 77 90 91 96 96 89 99 100 100 100 100 99 99 98 99 98 100 100 93 96 100 95 85 70 74 85 81 80 76 77 80 77 77 77 78 76 77 77 71 71 85 88 91 80
100 100 99 95 96 98 100 100 97 82 90 94 94 96 83 94 91 97 100 100 99 100 100 100 100 100 99 94 97 97 91 86 76 87 83 81 78 72 70 70 76 81 76 72 78 83 83 81 80 76 74 74 72 94
100 100 96 96 99 100 100 98 89 92 91 97 95 83 89 93 92 87 89 88 85 100 99 100 99 90 98 99 97 89 91 84 87 87 84 79 82 74 72 68 74 78 76 71 79 88 88 89 84 80 81 86 79 77
98 98 96 100 98 100 98 84 92 95 98 93 98 84 83 81 86 85 88 89 93 96 95 97 96 97 98 92 88 88 88 95 88 83 80 77 79 78 78 65 77 78 68 80 90 92 95 89 73 72 88 99 86 77
99 98 98 99 97 83 89 98 89 90 93 92 89 87 88 84 84 88 88 88 92 94 97 97 99 94 86 87 90 91 90 88 78 79 76 73 73 79 76 80 84 75 82 82 78 76 82 85 82 75 90 99 98 91
99 100 100 100 91 67 82 98 98 92 77 83 95 97 93 90 90 89 90 91 94 96 97 97 91 73 75 76 81 80 80 76 79 81 78 76 75 87 85 83 69 64 71 79 71 72 70 61 68 78 94 96 98 99
100 100 100 82 75 68 83 94 93 91 94 96 94 98 95 92 95 98 96 93 97 96 94 80 75 69 79 80 82 82 80 78 77 73 73 78 78 81 82 84 75 68 65 60 53 54 63 60 68 82 95 89 98 99
100 97 96 95 87 88 93 96 89 90 95 94 93 96 100 99 96 96 95 94 92 88 82 79 79 76 75 79 78 81 80 84 84 73 74 80 81 84 81 81 87 73 73 69 65 62 62 61 63 82 95 88 78 86
95 92 97 91 94 90 97 95 94 94 85 87 96 94 91 96 94 90 99 94 88 79 82 86 86 81 80 72 76 79 83 88 82 74 68 63 64 75 75 76 72 72 72 59 49 54 58 59 71 76 78 71 67 76
99 98 97 95 90 96 90 95 88 94 94 99 100 94 86 88 92 96 99 86 80 80 84 85 83 82 83 89 82 76 77 87 88 84 72 66 69 65 58 56 56 50 46 45 49 54 60 62 71 74 73 75 76 78
92 98 92 96 92 92 96 98 99 97 100 99 100 97 94 95 90 97 95 82 78 78 74 76 80 84 86 82 78 77 74 83 86 84 75 67 60 61 62 58 52 43 43 51 61 57 55 56 64 68 70 77 81 79
95 95 95 93 95 93 94 100 100 99 99 100 97 92 96 91 86 79 75 75 74 73 70 72 79 81 80 81 78 77 71 73 81 79 72 64 58 56 70 68 66 50 37 39 43 46 48 54 66 72 76 78 86 88
96 98 92 84 84 86 86 78 77 86 94 95 89 99 94 91 84 69 66 70 68 50 44 55 68 80 76 72 72 72 71 71 74 71 66 61 54 47 46 62 70 44 38 34 37 42 49 59 71 76 80 84 84 84
85 93 96 95 94 91 88 90 88 89 81 79 86 100 93 86 73 73 72 36 32 31 37 41 40 46 55 62 70 74 74 78 77 74 68 65 59 54 53 53 54 54 50 48 52 57 62 66 71 79 86 86 84 82
93 88 89 100 98 98 88 82 81 77 68 83 87 84 82 76 78 74 39 37 43 50 53 44 32 35 39 47 59 74 80 77 87 87 82 71 74 53 48 46 46 51 56 60 69 90 85 87 85 85 90 96 96 97
94 92 96 100 98 95 86 82 84 84 82 82 83 86 84 82 51 38 42 46 59 60 43 42 43 45 54 60 62 57 65 75 77 75 75 70 65 43 42 44 47 50 56 60 68 74 80 86 84 83 85 91 93 94
95 97 99 98 96 90 93 92 92 85 91 94 95 94 66 77 64 42 42 42 45 48 60 65 62 63 67 70 75 73 68 53 47 58 68 70 65 61 59 57 58 62 66 70 75 78 80 85 88 91 94 94 91 100
99 100 100 100 98 94 95 100 99 95 94 95 89 96 92 87 88 76 37 40 60 74 66 64 71 61 58 55 54 57 62 63 55 50 65 76 75 75 78 78 72 73 76 79 86 92 94 97 98 97 97 96 95 95
98 96 100 99 96 95 99 94 95 97 99 99 92 92 92 89 83 76 58 62 64 62 63 60 58 60 65 67 64 61 67 67 59 57 60 66 69 71 75 80 87 92 94 95 94 96 98 98 97 98 97 97 95 95

GFSWCAN_925_rhum_051.txt.gz
RH
100 98 93 90 79 80 76 75 91 92 83 89 91 96 95 96 88 93 80 80 69 62 53 45 41 52 47 71 93 82 72 70 73 69 64 57 52 52 53 48 55 60 64 65 62 77 76 37 55 62 58 53 51 52
100 100 95 88 81 84 72 80 94 98 88 84 78 94 94 94 89 91 79 86 87 78 57 61 57 51 46 40 56 80 92 69 54 59 50 48 51 53 49 62 46 60 45 50 49 50 36 39 46 50 54 55 54 55
99 99 95 89 84 78 79 94 82 82 82 78 81 97 94 93 88 94 96 84 96 96 66 61 60 52 63 64 56 66 81 77 67 66 65 54 59 46 58 54 54 49 41 53 51 42 40 40 45 52 53 55 54 55
99 99 98 88 86 78 85 80 80 80 78 80 96 98 91 94 95 94 99 93 88 72 94 56 54 51 53 56 59 55 57 67 75 83 78 64 58 50 47 50 48 45 51 55 52 46 50 44 43 46 51 53 56 57
92 100 96 92 81 81 80 79 83 88 84 84 95 98 86 94 99 97 95 85 84 82 85 76 63 59 57 58 56 58 56 61 92 100 92 72 62 58 59 61 57 48 49 57 54 40 42 42 47 54 56 58 56 59
98 100 92 90 82 84 85 86 88 87 81 85 93 86 87 95 92 90 74 77 89 98 100 89 55 56 58 76 63 57 56 59 96 100 97 74 62 65 73 61 42 38 41 39 44 47 51 53 56 57 58 58 55 58
98 94 89 84 86 87 89 87 86 87 78 86 87 93 91 78 93 78 77 86 80 100 92 85 80 57 87 65 58 61 67 78 84 100 97 86 77 74 72 68 41 38 43 47 51 56 62 60 60 59 57 57 60 59
89 84 89 88 89 91 94 90 90 79 90 89 89 92 73 84 92 90 94 96 93 99 96 91 82 76 78 83 74 67 82 86 93 97 92 89 83 83 95 65 51 45 52 55 57 57 59 58 58 57 60 61 68 65
78 80 86 86 88 95 97 93 84 87 88 86 90 79 94 95 74 82 95 95 98 99 97 90 91 96 93 84 83 81 78 96 92 97 100 95 94 96 71 62 54 54 57 57 58 62 63 68 68 69 68 68 68 67
86 84 86 87 90 96 98 92 92 88 88 90 79 82 79 86 86 91 100 100 100 100 100 92 83 95 95 93 98 98 95 96 100 87 93 97 97 67 61 60 51 51 56 62 70 76 84 91 82 73 73 70 70 70
90 89 88 89 95 100 98 92 87 88 85 74 71 78 95 84 98 94 100 100 97 98 98 93 100 100 95 99 97 88 98 98 100 99 96 95 84 73 66 66 63 64 65 67 69 67 67 71 82 86 84 83 77 68
94 96 91 95 97 98 94 93 86 88 88 76 78 87 97 91 98 100 97 99 100 94 100 100 92 97 94 97 94 97 100 98 98 96 100 92 70 71 64 64 64 61 62 64 69 76 83 84 88 90 92 81 60 58
93 99 100 97 96 100 97 87 85 89 85 90 84 96 95 90 98 97 91 87 94 100 100 99 99 96 90 90 96 98 100 98 93 99 87 69 81 71 67 64 67 65 67 67 77 92 93 85 82 90 98 93 81 63
92 86 99 99 99 100 96 86 93 90 82 80 86 86 92 88 84 87 90 100 100 100 100 100 99 99 90 100 96 100 96 96 93 91 80 62 75 65 65 68 67 70 80 89 71 72 78 69 64 67 85 94 90 75
91 96 98 100 100 100 93 92 97 83 84 81 87 84 89 78 91 98 100 100 100 98 99 99 99 98 100 100 96 97 98 90 76 70 73 83 74 71 70 72 75 67 67 70 71 70 70 70 67 66 69 69 71 87
93 97 100 99 98 99 99 100 98 82 92 89 92 88 75 88 86 93 99 100 99 100 100 100 100 100 97 100 98 94 88 79 76 93 83 75 71 67 67 69 78 71 61 58 66 74 76 72 72 72 70 73 71 74
95 100 98 97 99 100 100 98 100 99 93 93 87 74 76 85 83 76 76 76 77 93 100 100 100 94 99 99 90 83 90 91 94 84 77 71 72 65 58 61 73 87 70 56 64 74 78 82 78 68 74 85 88 76
98 95 95 100 98 100 100 99 95 92 91 88 90 77 67 62 71 71 73 78 86 92 92 98 98 95 94 87 83 89 87 95 85 78 76 74 70 70 62 56 66 68 58 66 77 82 86 80 61 55 69 90 87 82
94 95 100 100 98 98 99 98 90 86 86 83 78 74 73 72 70 71 76 78 84 87 94 95 97 91 80 86 91 100 95 88 72 72 70 66 64 69 69 72 80 73 74 75 66 58 62 71 68 65 74 83 86 87
98 100 100 100 98 98 95 96 98 89 79 80 87 90 84 81 82 81 80 82 83 93 94 94 87 68 66 72 79 76 76 72 72 73 73 70 67 81 85 78 67 57 58 70 68 68 60 56 62 66 79 84 86 83
100 100 100 98 99 87 83 88 88 85 86 84 86 87 85 86 87 90 88 86 91 88 88 73 67 60 73 68 69 75 74 73 73 70 68 73 69 73 78 82 78 63 52 48 44 42 60 51 58 69 86 77 79 82
100 99 99 100 97 96 91 90 84 84 91 88 89 88 90 95 90 91 89 91 86 80 70 62 63 67 69 70 65 73 71 78 79 80 74 75 74 79 78 77 80 71 61 59 56 54 54 57 59 66 78 76 75 71
98 98 98 95 93 88 98 94 96 91 92 87 92 90 88 90 89 86 94 86 80 68 70 73 79 84 80 74 76 76 75 82 78 77 71 68 63 75 77 80 78 80 79 68 57 60 62 57 61 72 73 78 70 68
95 99 95 92 85 97 87 93 83 87 88 87 89 82 85 84 86 91 87 76 70 69 72 82 72 66 65 87 77 68 72 77 79 82 77 67 68 59 67 70 62 69 59 50 48 53 55 56 64 69 77 75 75 75
98 96 89 97 88 92 94 96 94 90 90 88 88 84 90 90 88 86 80 75 73 73 69 64 64 69 80 77 68 68 66 78 76 76 77 76 65 60 60 57 54 52 48 47 56 55 58 60 61 68 75 76 76 76
93 94 94 88 94 91 89 95 95 92 86 89 87 85 90 87 88 84 73 75 76 74 73 74 71 68 62 67 68 66 71 73 85 82 76 77 73 68 76 70 66 52 34 33 40 49 53 56 60 66 73 72 77 81
95 94 87 75 76 80 80 74 71 79 89 88 84 93 90 94 85 69 60 62 67 57 37 44 55 64 62 60 56 52 62 68 73 76 76 72 73 70 64 70 67 48 42 36 35 39 48 50 54 59 67 72 74 75
81 87 93 91 86 84 87 81 84 87 77 68 77 95 89 81 71 68 70 47 36 32 35 36 36 36 38 35 34 40 50 59 70 74 71 66 64 62 61 59 55 52 49 48 43 41 45 48 55 63 72 76 80 78
89 85 81 99 95 93 89 83 80 71 61 74 83 78 77 68 72 71 48 36 35 42 58 62 54 42 46 43 43 43 50 67 86 84 79 70 66 60 46 54 55 55 58 60 59 55 55 58 62 69 76 81 86 94
93 82 90 98 97 93 83 77 78 77 70 72 75 73 74 76 51 36 43 45 59 64 53 50 49 54 63 60 63 63 53 53 64 71 69 66 60 53 50 42 45 55 57 61 64 69 88 98 100 100 97 97 98 96
88 89 92 90 93 83 84 84 83 73 78 84 86 87 67 74 63 40 39 41 49 54 59 64 62 64 73 65 70 73 69 60 55 51 54 69 72 63 51 48 47 47 50 54 62 66 72 82 85 87 89 90 90 97
93 96 97 100 94 88 87 91 87 88 86 90 85 88 85 83 84 72 35 38 62 66 62 62 69 66 63 66 61 60 68 65 62 58 55 61 81 82 76 68 65 62 62 65 68 73 79 83 88 93 95 95 93 94
93 91 94 95 94 89 90 87 88 92 92 92 88 85 85 82 78 72 55 56 59 68 72 69 67 63 63 65 68 67 65 65 65 65 59 54 62 76 81 78 76 74 74 77 83 89 95 97 98 97 96 96 95 94

GFSWCAN_925_rhum_054.txt.gz
RH
98 98 97 90 91 85 82 84 92 94 85 86 76 74 96 91 87 87 79 83 73 70 60 50 47 50 54 63 99 90 82 75 82 83 73 66 66 66 53 47 58 64 71 74 68 90 87 50 61 73 72 59 58 63
93 93 89 97 92 82 82 73 85 92 90 78 74 81 97 89 91 87 83 81 81 85 69 59 62 59 52 46 58 64 97 88 86 82 71 60 61 54 58 65 51 68 57 60 58 68 46 40 51 60 57 64 61 64
96 90 91 95 88 82 75 73 82 79 81 78 76 88 96 96 93 96 93 93 91 90 71 60 60 56 64 66 61 68 73 78 80 81 95 79 71 54 68 63 59 53 47 60 52 47 46 44 47 61 60 61 60 62
88 97 97 100 90 83 72 79 77 82 86 88 84 92 94 93 91 94 96 96 92 72 96 61 50 50 49 58 60 60 58 63 69 85 96 91 81 54 63 60 57 53 55 59 61 53 50 50 48 60 62 63 64 62
94 97 99 99 87 82 76 76 76 82 88 85 78 93 82 88 93 90 86 87 90 87 88 88 72 62 55 58 55 57 60 65 83 90 99 94 72 64 66 72 73 58 62 73 69 52 53 53 57 56 62 64 61 60
95 91 100 100 90 82 80 80 83 86 90 86 81 92 91 90 94 89 75 77 91 88 97 97 65 57 60 67 73 68 62 68 91 93 96 98 78 74 88 83 48 44 46 44 58 59 64 65 64 59 62 62 58 60
91 90 100 96 92 86 84 83 86 87 92 83 88 90 93 84 84 77 92 88 80 90 90 94 88 65 84 64 64 68 61 88 81 93 96 90 97 86 88 84 46 42 42 49 58 61 67 65 73 66 59 59 62 63
82 89 95 91 88 88 86 87 89 87 86 89 93 94 91 73 89 94 93 92 92 98 98 96 90 78 74 88 82 70 83 82 90 81 93 88 82 96 99 73 60 51 52 59 62 63 66 66 61 59 62 66 72 77
81 85 87 90 91 91 92 94 92 91 88 87 87 84 85 91 82 86 85 91 98 96 98 92 96 97 97 94 95 88 88 96 83 92 97 96 91 94 85 69 61 58 63 63 70 67 65 68 69 71 72 74 78 77
82 86 89 89 90 92 93 98 95 92 86 86 77 75 82 88 82 85 100 98 100 100 100 92 85 96 94 96 99 97 90 99 99 84 95 100 97 80 70 67 67 63 71 73 79 81 82 94 87 76 81 82 82 82
87 90 90 87 83 88 96 100 96 85 82 75 74 77 89 84 93 92 99 100 99 99 98 94 99 100 95 99 99 94 98 99 99 94 99 100 96 84 72 74 71 74 73 74 70 70 72 79 88 90 87 84 86 74
91 92 92 88 84 92 100 99 92 82 87 78 78 85 87 84 94 99 96 98 100 96 100 100 99 98 96 98 96 98 98 100 99 97 100 97 87 74 71 71 69 67 64 68 71 80 83 85 89 89 89 91 82 69
96 98 96 94 92 98 100 100 91 82 83 89 86 78 95 87 97 94 96 98 99 100 100 99 99 99 95 96 98 99 99 99 84 99 90 88 89 77 71 68 70 68 69 74 89 91 87 77 84 91 96 98 97 88
88 93 93 93 99 100 100 97 90 86 79 95 95 94 91 90 90 91 97 100 100 100 98 98 100 99 92 100 96 100 91 98 98 93 82 83 85 76 69 70 75 82 87 87 75 73 73 71 68 71 73 71 77 85
86 86 90 88 97 100 100 97 90 82 80 94 94 95 91 86 93 89 100 100 99 98 99 99 99 100 100 100 99 99 100 97 82 74 96 97 81 78 78 79 72 75 78 80 81 78 72 70 70 69 70 71 69 71
89 88 94 89 94 100 100 100 92 90 84 97 98 98 88 96 96 90 94 98 94 100 99 100 100 100 99 100 99 94 94 90 93 100 97 90 82 78 76 80 71 65 61 63 76 76 74 75 76 74 73 82 81 72
91 99 85 92 99 100 99 98 98 99 98 94 97 86 91 94 97 92 81 82 80 90 99 99 99 99 100 99 95 86 95 99 100 99 95 80 80 75 69 76 88 88 84 62 63 74 79 80 68 61 74 82 87 82
99 89 84 100 99 100 100 99 99 98 98 95 99 95 80 72 81 78 80 86 90 96 95 100 99 99 98 97 91 98 97 100 97 94 94 83 79 73 61 68 72 70 60 64 71 73 77 73 63 61 64 78 82 85
88 92 99 99 97 98 99 99 99 98 93 93 92 88 84 84 80 79 82 82 86 85 94 95 99 89 92 93 98 100 100 98 94 85 81 72 72 75 67 67 73 66 66 68 66 62 62 64 61 59 65 76 85 82
94 100 96 98 98 99 98 98 98 98 95 92 94 95 95 90 86 78 76 80 80 88 96 93 93 88 84 88 94 94 94 85 84 86 81 78 71 75 77 78 76 64 62 68 60 62 61 58 54 55 62 79 82 79
100 100 100 99 99 99 95 96 96 94 95 92 96 96 96 93 97 87 82 91 90 92 92 92 84 78 79 76 73 75 82 83 87 85 83 91 74 74 81 81 72 61 60 58 61 54 51 57 51 51 63 77 73 72
100 99 99 100 99 98 94 91 95 92 94 97 97 96 98 99 93 87 95 92 84 92 91 85 90 90 90 82 78 74 74 72 76 82 80 77 87 94 91 85 86 80 65 54 49 49 47 50 51 50 62 73 74 64
98 99 99 99 97 96 96 96 96 96 99 97 98 98 98 98 98 93 98 96 94 91 84 86 86 80 88 74 67 67 68 75 89 85 83 81 78 74 75 76 79 82 87 68 55 58 56 52 54 61 65 70 70 64
99 100 99 98 97 96 95 97 93 94 96 97 98 94 97 98 98 100 100 95 93 93 92 91 84 91 86 87 97 90 69 74 81 80 79 78 87 70 67 78 77 76 74 62 56 52 50 50 54 59 61 73 70 71
98 98 97 96 95 96 97 99 97 98 98 95 95 92 98 98 99 99 95 90 94 95 94 92 90 91 93 95 96 67 63 68 82 93 76 76 76 66 60 58 58 56 59 64 53 51 51 49 52 53 57 64 69 71
96 97 96 91 97 92 94 97 97 94 93 95 94 96 97 98 98 86 89 91 92 93 89 84 89 92 92 84 88 92 55 57 71 91 74 76 78 76 85 85 81 59 46 42 43 46 46 47 53 55 56 60 71 73
96 98 91 72 82 84 87 81 79 92 96 93 95 99 96 94 88 80 89 88 86 56 33 31 41 67 69 46 34 30 32 41 49 54 59 66 68 71 77 81 81 64 52 39 36 37 39 44 49 52 52 53 58 64
82 88 93 95 93 95 92 93 92 91 88 86 84 98 90 82 76 87 86 47 34 23 23 27 30 32 33 32 32 37 42 46 57 64 67 62 53 52 59 62 65 68 63 52 46 44 40 41 44 47 49 53 56 65
94 88 86 99 96 96 94 88 89 88 73 84 88 88 85 87 85 84 49 36 31 34 38 41 36 35 43 43 45 48 50 57 80 84 76 71 86 51 37 40 48 58 60 62 58 54 51 46 45 48 52 59 65 76
99 93 95 99 94 93 89 87 93 92 86 88 90 90 92 93 45 36 47 52 56 59 46 46 49 53 62 64 71 70 65 60 58 68 70 67 60 46 47 45 44 44 54 62 64 69 84 83 83 92 96 97 97 94
97 96 96 96 97 94 96 95 91 86 90 96 97 95 86 88 60 41 40 38 39 45 58 63 62 64 70 74 78 80 77 64 59 59 61 64 66 68 67 58 51 46 54 67 70 69 75 96 97 96 98 91 84 93
98 98 99 100 98 95 96 98 97 98 97 100 96 98 97 96 90 79 36 33 54 70 61 58 68 70 69 71 73 72 71 71 69 67 64 60 62 69 80 75 61 56 55 57 63 68 71 74 80 83 83 84 86 91
99 98 99 100 98 95 97 93 94 97 98 100 95 94 93 90 80 79 51 47 47 51 61 66 67 66 64 63 61 62 68 70 66 69 69 67 63 63 78 88 77 71 68 67 69 72 75 78 82 87 90 92 93 94

GFSWCAN_925_rhum_057.txt.gz
RH
90 94 95 94 88 88 83 92 92 87 91 81 74 76 95 90 84 91 79 81 73 88 83 60 55 60 61 70 91 83 90 88 89 85 87 81 77 70 62 61 70 79 80 83 74 90 92 54 61 74 66 60 64 68
96 97 93 97 87 90 85 84 85 83 90 78 76 84 94 97 90 91 88 88 85 92 83 60 64 66 64 59 67 68 94 85 94 98 87 78 70 69 71 76 56 72 66 74 70 74 50 56 56 62 62 62 62 66
90 90 90 84 91 88 87 75 78 79 77 78 80 95 87 97 94 95 99 89 92 97 90 70 65 51 60 64 62 76 76 77 88 93 97 96 85 69 77 78 63 54 55 62 55 48 49 48 58 66 62 62 60 60
89 87 87 89 95 88 81 76 76 79 78 81 86 86 92 84 84 88 92 88 97 98 100 79 55 55 52 59 64 66 64 65 76 84 99 98 95 68 74 66 68 63 62 64 66 58 54 52 59 69 67 66 66 65
90 88 89 84 87 87 78 79 78 78 83 83 86 75 86 86 90 86 80 91 91 92 96 90 75 66 59 59 59 61 61 68 84 86 96 96 92 80 78 80 83 64 66 73 77 59 56 57 56 68 71 71 69 65
90 88 88 92 98 89 79 78 76 82 85 85 82 77 84 90 85 74 84 80 85 85 96 99 71 62 59 61 58 61 66 74 92 95 95 95 84 97 99 94 64 50 56 58 61 64 70 74 70 63 71 69 63 62
93 91 96 99 98 91 81 80 80 84 81 86 80 85 89 90 93 81 80 82 80 87 97 97 94 70 78 74 73 78 67 86 90 95 97 94 94 93 100 99 55 48 47 65 68 70 71 67 75 69 68 65 64 66
97 93 100 96 93 92 84 84 90 88 88 87 84 86 83 79 80 98 92 93 95 95 98 100 94 85 74 88 87 81 91 88 89 83 78 95 88 92 95 85 71 52 59 69 73 68 72 73 69 67 69 70 72 79
93 99 100 95 91 90 88 88 93 90 88 86 80 76 74 87 89 90 86 94 97 96 99 97 100 98 97 98 92 83 84 94 86 92 89 94 100 98 84 84 74 63 67 71 74 75 73 71 73 74 74 76 79 84
94 94 90 86 87 87 91 95 94 90 89 79 70 76 86 91 82 87 100 86 92 100 100 97 87 97 97 98 100 99 95 99 100 88 92 94 93 75 76 77 78 71 70 74 81 82 81 94 85 80 83 86 87 90
89 88 84 81 85 88 91 96 99 91 77 72 81 92 90 80 84 94 98 97 97 99 98 97 97 96 97 100 100 99 92 96 99 98 96 99 98 89 76 76 76 78 77 77 76 78 77 76 84 90 89 85 88 72
92 90 85 82 85 87 92 100 98 82 76 76 78 82 80 74 93 98 96 99 98 95 100 100 100 100 98 98 99 98 98 98 97 98 100 99 94 79 77 77 75 72 71 74 75 82 84 85 88 86 87 92 92 88
96 92 88 87 92 92 98 99 93 82 79 83 83 85 83 92 88 99 94 97 100 100 100 100 99 98 97 99 99 100 100 99 88 100 96 89 89 80 77 72 73 72 75 86 88 86 76 75 83 88 93 94 94 96
100 92 91 89 98 97 100 100 92 81 74 93 94 92 92 94 83 93 96 90 91 99 99 100 100 100 98 100 98 100 94 96 100 98 86 84 87 82 75 72 76 88 88 81 74 74 76 78 82 86 82 70 69 75
93 88 88 95 98 100 97 99 91 75 70 92 91 92 94 88 97 89 89 96 93 96 100 100 99 100 100 100 100 99 99 97 89 85 97 98 83 81 83 77 78 89 88 92 89 89 80 73 73 79 78 76 72 72
92 88 91 95 98 99 100 99 91 85 85 94 97 100 89 94 96 88 83 91 97 94 95 100 99 99 99 100 99 96 98 94 99 99 98 93 84 81 83 78 71 71 82 94 98 97 81 75 78 77 78 80 86 81
91 87 80 88 100 100 99 96 98 100 96 99 99 91 96 97 95 94 88 88 86 85 94 96 98 99 99 98 98 91 98 99 99 99 98 88 84 81 76 84 77 70 64 63 84 87 78 75 66 55 62 72 87 86
96 86 85 99 99 100 99 99 99 98 99 100 100 96 91 82 89 87 88 91 94 88 96 93 97 100 99 100 95 100 97 100 98 96 96 87 80 75 71 82 84 88 89 89 79 78 74 71 62 59 60 70 75 76
82 84 100 98 97 96 98 99 99 98 97 96 97 96 90 87 87 85 89 90 88 88 97 92 94 88 94 95 98 99 100 99 94 89 86 78 77 74 65 66 72 68 60 65 71 63 61 61 55 55 57 70 78 77
81 94 100 98 92 92 98 98 98 96 98 92 98 96 97 97 92 88 88 84 87 88 97 95 93 90 92 89 97 96 96 88 87 86 82 82 74 76 77 73 75 66 62 69 68 66 61 57 52 52 54 69 78 70
100 100 100 99 99 99 98 97 100 96 98 92 98 96 96 97 99 90 96 90 96 86 95 92 91 88 84 80 77 80 84 85 89 90 87 94 81 80 80 80 76 72 67 64 65 59 59 58 45 48 50 62 68 68
99 99 98 100 98 98 97 94 92 94 97 98 97 97 99 100 95 96 96 97 90 92 91 93 95 94 93 83 77 75 75 73 72 75 76 83 93 95 92 84 90 88 78 71 60 59 48 42 46 49 48 55 72 69
100 99 100 99 98 97 96 96 96 99 95 98 96 96 98 98 97 94 100 95 94 90 87 90 85 80 87 71 69 65 63 69 82 81 81 82 83 83 85 81 81 89 91 82 69 53 48 46 52 57 50 65 70 65
95 99 98 97 97 96 95 96 95 96 97 96 98 95 95 98 98 100 100 93 90 97 94 91 85 92 87 82 96 88 62 70 78 82 78 85 94 84 74 73 74 77 78 77 72 67 59 57 52 52 60 58 65 71
98 98 98 96 96 95 98 98 99 100 95 97 95 94 96 97 97 100 97 86 94 97 95 96 96 94 86 94 93 63 44 55 75 92 53 67 76 82 78 70 68 66 69 78 78 66 62 55 50 54 55 58 64 65
96 95 96 92 97 91 93 96 98 97 95 98 92 95 98 98 100 88 87 88 90 93 94 88 80 89 93 84 83 85 30 34 58 88 50 48 64 82 90 93 90 72 60 54 56 60 56 48 48 52 56 55 68 71
96 96 94 77 87 86 88 84 83 94 96 92 95 99 95 93 86 75 86 92 89 67 48 31 41 63 59 38 31 28 30 38 39 39 43 51 60 67 72 84 88 69 65 62 52 49 49 46 46 48 48 46 47 49
87 90 95 94 95 95 92 96 95 91 90 88 84 95 87 80 69 79 83 47 41 36 29 28 30 30 30 28 28 34 36 41 47 52 55 53 44 41 44 50 49 52 66 72 65 54 46 43 42 40 44 47 44 47
95 90 89 99 96 95 93 87 87 87 76 86 85 82 80 79 86 86 44 35 28 27 31 29 27 29 32 34 36 39 46 54 75 83 76 72 84 47 37 39 36 38 43 52 65 67 55 50 48 47 46 48 49 57
99 93 92 97 91 88 87 90 93 93 87 86 88 90 91 91 48 35 41 49 51 53 40 37 41 46 54 59 60 56 55 58 63 75 77 74 67 51 49 51 52 49 50 58 64 72 81 87 80 79 65 63 66 70
94 92 93 95 93 94 96 95 94 89 91 94 98 91 69 86 62 40 40 41 44 52 62 65 59 61 70 72 81 89 75 56 57 59 62 66 66 67 68 67 68 62 58 56 61 73 76 90 82 81 86 88 91 97
96 98 96 100 96 93 96 98 100 100 99 100 94 100 98 95 89 83 39 40 59 69 65 63 70 64 59 62 66 71 76 80 77 73 71 70 70 68 63 60 73 82 71 58 68 80 79 84 94 97 98 97 94 84
98 99 100 100 97 95 96 93 93 100 100 100 99 98 98 90 80 79 54 56 62 61 64 65 67 68 66 63 61 59 60 62 63 70 77 81 81 78 70 65 74 81 67 66 68 73 77 77 81 83 81 80 83 88

GFSWCAN_925_rhum_063.txt.gz
RH
89 90 94 74 83 80 83 77 82 80 86 71 68 73 87 81 75 74 80 70 78 88 87 71 59 64 68 72 79 80 88 96 95 84 82 84 88 78 76 72 78 83 88 94 82 88 90 48 59 71 64 65 64 65
89 92 94 80 83 85 76 94 77 82 84 74 75 81 90 83 80 80 82 90 92 89 84 78 78 75 71 59 76 77 96 100 100 99 93 94 86 83 79 80 67 72 70 79 78 74 50 47 63 56 66 68 59 61
92 88 92 88 84 89 81 94 71 79 79 77 79 81 88 78 82 83 86 95 87 94 76 76 60 57 60 66 69 82 84 91 100 100 100 98 94 80 83 86 68 60 63 67 64 53 57 52 52 62 64 62 58 59
90 91 93 88 94 80 84 76 70 74 76 81 83 81 82 82 91 77 80 94 84 97 93 78 62 64 64 65 68 65 70 75 94 87 82 97 99 89 89 82 80 67 65 66 70 62 59 54 58 54 66 62 63 64
93 92 93 91 90 83 81 66 70 74 78 82 85 77 83 88 81 69 73 90 89 87 94 93 71 63 63 64 66 72 71 76 85 84 92 87 90 95 87 91 95 72 66 73 72 56 55 53 48 54 72 71 71 70
92 92 95 92 88 84 76 64 70 76 81 91 86 78 84 90 80 75 89 78 80 81 96 98 72 70 66 64 75 75 74 83 92 90 91 87 82 93 93 88 75 64 59 61 64 53 60 58 69 69 74 75 75 72
93 98 91 92 86 84 71 66 70 78 86 93 86 83 92 91 78 75 85 88 83 90 97 95 94 69 80 77 81 83 81 91 89 92 96 93 91 90 88 89 59 55 62 68 68 71 73 73 72 71 75 75 70 73
96 95 95 87 84 80 71 68 74 84 92 93 87 83 87 84 89 88 89 92 89 89 81 94 95 84 78 92 88 85 94 94 92 90 90 97 92 92 95 68 59 54 52 69 77 74 75 76 77 76 76 73 75 79
93 95 90 88 78 82 73 73 83 88 95 89 79 77 81 81 85 89 92 97 92 91 91 89 96 97 91 98 97 91 90 97 86 95 95 92 91 89 76 67 74 77 74 71 74 76 76 74 78 76 76 78 79 83
94 94 92 86 84 80 78 82 88 94 93 82 76 76 97 88 81 84 99 97 97 97 84 96 90 95 93 93 100 91 94 92 97 86 89 96 91 77 82 87 87 88 81 80 83 84 80 86 83 80 83 88 88 90
92 85 86 92 86 82 82 87 94 98 85 70 84 93 95 81 78 93 94 92 96 90 90 85 93 94 89 99 99 97 98 99 99 99 96 98 90 88 87 88 87 83 78 79 82 87 87 78 85 86 88 88 90 86
93 91 90 93 89 85 86 95 91 86 72 63 71 77 73 78 94 83 98 94 85 96 95 98 97 97 93 97 100 95 99 100 93 100 100 97 82 86 85 79 77 90 88 87 85 87 92 94 95 90 92 92 91 95
93 90 91 93 87 90 92 93 96 77 73 72 70 85 89 89 86 87 94 99 92 96 99 97 96 92 92 97 99 100 100 97 95 100 94 94 87 87 85 79 76 82 90 98 98 98 94 92 95 97 90 77 70 74
100 98 93 87 89 93 89 100 90 76 67 89 76 75 79 98 95 90 92 90 88 95 95 96 96 97 89 100 100 100 92 100 99 100 94 95 94 92 86 79 79 88 81 83 96 98 95 96 94 89 90 84 75 74
96 91 86 86 95 96 94 94 84 73 67 88 79 65 96 85 96 96 96 95 95 90 97 95 96 96 94 97 99 99 99 98 94 92 98 100 94 90 85 82 84 94 96 100 98 99 97 78 74 75 79 77 82 81
88 90 98 96 97 94 93 92 84 74 83 92 96 78 91 98 97 100 100 99 96 75 78 77 97 98 87 97 98 99 98 95 95 100 100 100 95 89 86 84 79 90 97 95 98 100 99 91 92 86 69 62 78 87
89 99 94 98 100 98 95 85 82 99 93 100 100 90 94 97 88 94 91 89 89 93 97 84 88 85 96 98 97 97 98 99 100 100 100 96 94 91 83 84 77 83 97 99 97 100 99 99 92 75 49 49 66 81
80 87 90 100 99 100 98 92 94 97 98 98 100 97 90 81 85 85 91 95 94 94 94 95 91 92 96 100 97 95 99 100 98 99 97 88 86 85 79 84 81 71 62 64 73 99 99 92 80 62 51 49 59 65
72 98 100 99 96 87 99 100 95 98 97 98 99 98 95 88 86 84 89 94 90 90 95 99 91 88 89 93 94 97 95 100 89 84 85 77 70 77 80 72 75 86 83 89 94 97 82 94 64 56 49 50 62 64
84 100 100 98 87 98 97 99 97 96 99 95 98 100 96 95 94 96 97 97 92 95 98 93 89 90 90 87 92 96 98 92 91 92 82 80 69 81 83 80 74 69 74 76 76 74 77 75 64 52 49 50 58 63
99 100 100 96 98 97 94 99 100 99 97 95 98 97 97 97 100 99 96 95 98 97 97 89 86 79 83 82 82 83 86 87 92 92 84 90 80 82 84 84 85 85 81 74 72 73 82 93 91 68 48 47 51 58
100 100 98 99 98 98 95 98 95 96 93 96 96 96 100 100 97 93 99 97 96 93 91 92 84 81 89 87 78 76 75 74 76 80 80 76 86 91 85 74 88 91 91 90 87 91 88 81 73 66 54 46 46 47
98 98 99 99 98 97 97 97 95 97 92 93 98 95 96 100 99 93 97 93 93 90 84 86 86 78 82 75 78 75 71 74 78 68 63 65 68 71 79 78 81 92 94 86 80 83 84 78 82 75 53 49 48 46
98 99 99 98 97 97 94 98 95 95 97 98 99 94 94 100 96 98 100 96 89 96 95 90 93 96 93 82 91 79 51 54 62 65 62 71 89 64 56 61 64 68 72 73 80 82 81 80 77 72 62 56 54 54
98 97 98 96 96 94 96 97 98 98 98 100 100 96 96 97 100 100 100 88 90 94 91 95 93 88 84 89 87 57 46 48 76 84 34 39 44 56 49 43 41 39 44 66 77 79 77 79 80 74 64 63 62 58
98 93 98 95 95 89 95 99 98 97 96 100 99 98 100 100 100 87 88 88 92 93 94 91 88 92 93 82 71 75 35 33 47 65 37 33 37 47 77 85 81 49 33 40 56 68 72 74 78 75 73 71 74 68
96 96 96 81 88 88 93 86 84 94 100 97 98 100 98 96 90 78 87 90 89 64 56 60 77 81 73 67 64 36 25 26 29 32 30 34 39 43 47 59 71 40 40 44 48 56 62 66 69 69 65 59 54 50
95 93 94 97 96 96 92 96 96 96 91 88 86 100 89 84 73 78 80 47 48 47 46 44 56 64 65 51 38 29 30 34 40 46 47 45 39 34 33 35 34 32 43 49 58 66 70 70 69 69 69 65 59 53
96 94 89 98 98 98 91 89 90 90 79 89 88 88 85 83 85 86 42 37 38 40 40 34 27 34 46 50 37 36 45 48 62 72 66 64 87 43 31 36 38 42 48 51 53 58 71 80 82 82 77 73 69 64
96 94 94 98 96 96 92 92 93 95 93 86 88 92 92 90 53 42 43 42 52 56 45 41 38 40 43 46 52 48 46 50 54 63 68 67 62 51 48 50 55 56 59 63 64 64 63 73 83 96 98 92 81 69
97 94 92 97 95 93 96 93 93 91 95 97 99 95 88 95 68 39 41 53 58 55 56 60 60 59 64 67 72 82 80 59 59 61 66 71 72 72 69 68 72 76 77 75 69 66 72 76 86 93 98 94 88 83
98 96 96 91 91 95 95 96 100 100 100 100 95 100 96 94 89 84 63 60 59 66 79 81 82 78 77 81 80 81 83 86 84 79 79 79 79 79 81 81 84 84 83 82 80 75 75 80 82 90 96 96 93 85
97 95 95 94 94 91 93 90 93 96 98 100 99 99 99 95 80 83 67 66 61 60 61 63 67 69 68 67 66 68 71 72 71 71 91 99 98 94 94 93 92 93 92 88 83 82 88 89 88 89 94 95 92 88

GFSWCAN_925_rhum_066.txt.gz
RH
100 99 97 94 62 62 89 94 86 78 63 66 66 76 79 71 68 68 82 82 77 93 86 73 65 79 83 77 81 77 81 94 98 88 91 89 88 83 78 73 82 86 92 97 89 94 88 50 60 72 61 64 66 65
98 98 95 88 54 76 91 95 83 82 66 71 68 76 81 74 74 72 87 94 88 86 80 80 79 72 76 68 81 82 96 100 100 100 96 93 87 87 80 83 72 79 73 81 80 77 52 46 57 56 68 72 63 63
100 96 100 74 64 75 86 86 88 79 70 71 70 76 82 79 80 74 90 83 84 92 81 68 64 61 61 66 71 85 86 89 100 100 100 100 92 79 86 87 72 63 64 69 65 53 60 54 54 59 62 68 59 59
99 98 92 72 79 80 84 75 93 75 73 76 80 91 84 87 78 70 78 86 83 87 93 68 61 64 68 69 69 70 74 81 91 93 86 96 100 95 90 86 87 74 66 69 74 63 59 54 59 60 56 66 63 64
100 94 85 78 82 79 86 63 87 70 74 92 80 85 90 86 68 68 78 82 80 79 91 90 70 59 66 66 70 74 73 79 88 87 90 85 84 92 91 92 96 82 73 77 74 57 57 58 53 57 63 67 72 69
99 92 86 83 81 82 74 63 75 71 78 88 79 82 92 84 77 73 89 82 80 79 95 88 71 74 70 70 76 79 79 87 94 90 92 85 77 90 98 91 70 70 65 63 72 72 65 62 62 68 72 72 73 74
100 96 84 85 83 80 65 68 71 75 92 86 82 91 92 84 70 74 82 84 83 87 93 95 94 68 78 78 84 84 81 91 89 94 95 92 89 94 97 98 58 51 49 46 67 76 78 71 76 76 74 76 75 77
93 98 89 86 82 76 62 64 73 87 93 88 92 91 89 79 84 81 91 92 89 86 81 96 94 84 81 95 91 86 94 95 92 90 92 96 91 92 96 75 61 51 66 70 66 73 76 78 74 75 77 75 77 81
99 98 88 85 81 75 64 71 82 92 95 95 81 78 81 80 83 92 93 95 86 82 95 93 95 97 83 91 98 94 90 95 89 96 93 93 91 90 71 63 63 85 90 85 90 79 78 80 82 79 77 78 78 84
98 90 87 88 82 69 69 79 93 96 91 79 74 75 96 91 86 94 95 87 96 95 89 94 92 92 90 91 100 97 94 94 99 88 92 90 83 75 71 71 82 80 80 85 92 88 82 87 86 80 83 88 89 91
94 91 94 86 80 71 75 91 97 97 81 69 84 94 99 91 84 94 94 90 97 90 93 85 92 95 88 98 94 94 99 98 98 98 98 96 93 84 85 88 87 92 85 83 85 90 90 87 85 86 88 90 92 89
95 97 90 84 79 76 91 96 94 79 74 62 72 79 76 83 93 85 97 92 78 92 93 95 96 96 94 95 98 99 99 98 95 99 100 92 86 86 88 81 78 88 91 92 91 89 90 94 97 96 98 94 83 92
95 91 91 87 82 92 92 88 86 66 62 64 69 84 87 89 93 83 100 99 93 97 98 95 92 92 91 89 90 98 99 96 96 99 92 92 87 88 91 87 78 81 89 98 99 98 98 98 99 98 96 99 98 74
94 97 93 85 92 89 99 94 78 68 62 84 77 81 80 97 94 90 91 94 92 92 92 90 93 93 93 99 95 99 90 99 99 97 95 97 98 95 91 85 84 86 80 90 98 95 95 96 97 99 99 98 94 90
99 97 93 89 97 99 99 82 74 69 64 86 77 66 94 84 96 97 97 95 98 76 85 91 83 87 89 98 95 96 98 98 94 93 99 99 99 99 96 85 84 91 94 98 98 98 97 91 85 82 88 78 87 94
100 100 100 98 100 99 95 80 73 70 82 88 86 80 90 94 95 100 98 91 97 77 87 78 86 93 85 98 98 88 97 94 94 99 100 100 99 99 94 84 86 84 98 97 98 100 99 96 86 83 79 58 68 83
90 98 99 100 97 93 87 71 79 96 94 99 100 90 93 97 90 95 98 96 88 89 97 96 93 87 93 98 98 95 97 97 98 99 99 98 96 92 89 87 84 82 99 99 99 100 99 97 98 75 60 44 52 67
100 100 100 99 96 87 88 88 94 96 100 100 99 98 84 78 84 86 92 97 92 95 95 92 89 90 95 99 95 92 96 94 99 98 98 94 84 81 81 87 79 81 77 74 82 84 100 99 96 80 66 48 48 54
100 100 100 96 86 87 100 100 94 97 99 99 98 98 94 89 84 83 89 95 90 90 96 99 90 90 94 92 92 95 99 100 94 86 86 79 76 77 77 81 81 78 87 78 73 85 97 94 96 85 60 52 55 52
100 99 100 91 78 86 97 99 92 92 99 96 98 100 98 97 96 96 97 98 95 94 97 96 90 89 87 85 93 93 95 99 95 89 84 81 67 75 77 83 86 81 76 75 80 89 86 76 65 68 65 53 52 49
100 100 99 87 90 86 93 98 100 96 100 96 98 98 98 98 100 100 100 88 98 97 99 91 82 78 79 79 76 81 90 89 91 89 83 90 76 80 81 77 77 82 90 86 83 77 76 78 73 92 99 77 53 48
100 99 96 97 94 96 94 98 96 96 92 97 97 98 100 100 99 97 99 98 96 93 91 92 82 79 89 87 76 76 75 78 80 83 84 85 91 87 75 64 83 90 86 86 87 91 88 83 83 84 79 74 61 47
95 92 99 97 92 94 98 96 95 96 92 98 97 94 95 100 99 93 98 95 93 87 83 85 79 75 78 72 74 73 73 80 89 86 77 66 60 59 68 67 73 92 94 73 69 76 81 78 87 87 84 80 62 52
80 96 96 98 96 97 95 97 94 95 97 96 97 91 94 100 97 99 100 96 88 95 94 86 92 97 95 94 98 90 76 75 77 69 55 60 81 62 46 49 52 54 56 53 64 71 75 77 78 80 79 80 69 62
91 98 97 97 96 94 95 96 98 99 96 98 97 95 96 98 100 100 100 88 91 92 83 93 95 93 88 90 97 78 68 67 72 75 44 49 53 53 42 35 33 32 34 46 50 51 56 67 77 81 82 79 72 65
94 93 98 93 96 93 94 96 98 95 95 100 99 98 99 100 100 89 86 87 88 89 91 92 93 97 95 89 85 87 51 51 54 61 36 32 36 42 71 75 77 41 27 29 37 44 49 58 69 76 81 79 84 82
99 97 96 78 86 88 94 86 83 94 98 97 97 100 98 96 91 78 86 91 88 56 54 55 61 84 86 75 70 68 56 38 39 36 28 28 28 31 35 47 60 35 35 38 42 46 49 52 59 65 70 70 71 70
94 93 94 98 96 96 92 96 96 95 92 89 86 100 91 84 74 77 78 42 45 46 40 36 39 44 54 61 68 57 49 50 44 46 45 44 41 38 37 35 34 33 36 39 47 57 66 71 74 73 74 74 68 68
98 92 89 97 97 96 92 88 90 89 79 87 89 87 84 82 85 85 42 42 46 49 53 48 42 40 37 45 57 61 52 47 55 67 64 60 74 51 42 44 46 49 50 52 52 59 72 77 76 78 78 82 77 80
97 95 95 98 94 95 91 92 92 95 91 86 88 93 92 91 57 48 45 45 54 59 59 63 62 63 62 65 62 57 53 53 53 60 70 68 68 64 62 59 62 68 69 66 65 68 71 71 68 80 93 98 100 100
96 94 91 97 96 95 96 95 94 91 96 98 100 95 90 96 69 50 58 63 59 58 58 67 61 67 73 76 82 90 86 66 75 81 83 82 82 82 80 76 72 76 83 88 87 83 81 83 78 78 83 92 97 100
98 95 93 92 89 95 97 96 100 98 98 99 95 100 95 95 90 88 63 59 59 59 69 63 64 61 66 69 70 73 81 79 74 67 63 65 69 76 80 86 86 85 82 83 88 94 94 90 86 83 84 89 94 100
98 98 98 97 96 92 96 90 93 96 98 98 98 100 100 97 79 84 64 63 60 59 59 61 64 66 66 68 78 82 81 84 83 81 94 98 100 98 94 94 93 93 94 99 100 100 100 98 95 91 93 93 92 95

GFSWCAN_925_rhum_069.txt.gz
RH
100 100 100 100 97 84 66 90 66 63 58 61 72 66 58 64 64 60 91 83 72 93 87 70 69 81 84 80 81 74 87 87 99 100 94 90 85 85 79 73 83 88 94 98 92 97 90 54 64 70 57 61 66 68
100 100 100 96 94 80 87 85 64 60 63 62 72 67 59 69 66 69 94 86 79 84 86 81 78 70 74 68 83 87 94 96 100 100 97 94 87 87 83 84 74 82 74 83 82 79 53 48 54 56 66 71 65 65
100 100 100 98 85 81 91 67 72 64 64 69 73 64 64 70 66 64 85 80 74 90 76 68 66 62 66 70 73 80 88 87 99 98 99 100 86 81 88 88 74 66 66 72 64 52 62 58 56 58 55 68 65 65
100 100 100 96 81 92 82 64 77 69 65 80 88 67 74 73 65 63 74 81 71 85 83 66 64 66 69 70 72 72 78 85 89 96 86 98 97 99 94 87 91 77 69 72 76 65 60 54 56 56 59 63 72 66
100 100 99 91 83 95 77 74 83 79 71 81 91 75 78 62 64 69 79 84 80 72 83 80 69 62 69 70 73 75 74 81 88 87 88 82 88 92 89 94 99 86 78 80 81 64 69 69 62 62 67 68 68 74
100 100 99 83 93 95 80 88 89 83 78 80 95 88 78 64 65 68 87 83 82 78 88 86 71 70 74 73 78 81 82 89 93 90 90 88 79 95 92 92 70 77 70 69 75 74 78 72 76 72 78 75 75 77
100 98 96 91 82 93 82 88 89 83 74 91 95 92 88 78 71 73 81 85 83 81 89 91 92 67 72 78 84 84 82 90 88 95 94 93 90 93 95 97 57 56 50 65 67 65 69 64 77 84 84 83 79 81
100 100 97 99 94 86 86 88 89 91 85 97 96 96 79 74 79 84 93 88 82 77 82 94 91 87 80 94 92 87 94 93 93 92 93 95 88 93 98 78 64 50 74 84 80 79 82 71 76 81 77 77 79 83
100 99 100 98 94 85 86 88 91 90 95 98 98 82 78 74 85 92 91 89 76 71 98 94 96 93 80 90 98 94 89 94 91 97 96 90 88 93 70 60 56 68 87 84 82 86 90 87 85 80 78 81 83 87
100 100 97 88 91 82 87 90 94 92 94 91 72 73 97 99 93 88 83 88 93 95 93 95 93 92 87 90 99 98 96 93 100 87 93 92 80 72 70 67 69 83 91 86 92 95 96 93 90 85 90 87 88 91
99 99 91 89 92 88 89 94 94 89 75 70 85 98 100 98 86 90 91 93 95 91 92 90 92 99 88 94 92 98 98 97 98 97 95 96 90 85 82 87 83 86 90 86 86 89 92 94 94 89 91 95 95 94
100 99 94 96 95 88 92 98 84 73 68 64 80 80 80 84 89 86 97 90 84 93 95 89 96 92 92 93 100 96 100 99 96 98 98 94 86 83 89 88 85 85 91 96 97 96 98 98 99 98 98 98 99 99
100 99 92 97 91 94 98 86 72 62 60 59 74 86 85 93 94 83 100 97 93 99 97 97 87 91 92 98 100 100 98 95 98 97 90 95 90 88 95 88 85 82 88 96 99 98 98 98 99 98 98 99 99 99
100 100 96 88 94 93 91 79 59 55 54 87 85 91 85 97 93 89 90 92 89 98 97 78 75 72 93 99 98 99 88 100 98 97 94 96 99 99 99 100 100 88 84 89 96 96 98 98 98 99 99 97 95 98
100 95 95 96 99 98 86 63 58 63 62 84 83 80 88 84 97 98 97 97 96 86 86 86 83 79 89 97 96 97 98 92 93 93 97 99 99 99 98 99 91 86 92 96 98 98 98 88 84 85 83 82 84 92
95 100 100 100 99 89 72 72 71 66 80 86 86 86 86 90 98 99 99 96 96 73 85 85 88 87 81 97 98 82 85 96 89 98 97 98 100 97 96 89 85 85 90 99 99 99 99 98 84 81 68 54 60 86
92 98 100 97 94 82 81 76 79 94 94 92 96 82 86 95 92 99 89 92 88 89 99 97 100 92 92 98 98 87 92 92 91 96 98 91 95 94 86 86 84 83 87 99 100 99 99 99 100 86 67 50 49 55
98 100 98 97 85 82 78 85 93 94 99 100 96 95 79 75 83 90 93 97 92 95 94 89 88 95 91 94 97 90 97 95 88 94 87 91 96 89 81 84 78 81 84 82 90 96 95 100 99 98 99 98 96 50
100 100 98 86 75 79 100 100 95 97 100 98 96 95 93 90 87 88 94 96 91 88 96 98 96 96 94 93 92 93 98 99 93 88 89 82 79 79 74 77 82 86 84 86 80 75 72 84 96 95 93 77 59 50
100 95 83 70 74 85 96 99 86 91 98 96 96 100 98 97 97 95 98 98 95 95 97 100 93 86 87 82 92 92 92 90 99 93 88 84 69 68 73 75 83 85 89 84 79 88 92 91 85 81 71 68 68 55
98 89 81 78 88 81 96 98 99 97 100 96 98 97 99 99 98 98 93 95 96 98 100 90 83 71 78 76 74 75 83 89 95 91 85 92 76 73 76 70 70 77 85 84 91 87 84 84 77 77 76 93 98 99
100 88 87 85 92 90 94 96 96 94 93 98 97 97 100 100 100 98 97 99 98 94 91 90 82 74 92 84 78 72 69 75 80 87 87 87 94 93 76 59 74 85 84 81 82 88 81 73 78 85 90 87 86 80
88 83 96 88 91 85 96 96 92 95 92 100 96 91 94 98 98 93 98 95 94 90 86 89 84 78 82 71 72 73 71 75 89 88 85 83 79 74 65 58 60 73 88 49 50 61 68 67 79 90 88 86 88 82
70 91 97 97 87 96 93 97 93 96 97 95 95 92 94 98 96 98 100 95 92 95 93 91 83 90 92 93 98 82 81 76 84 82 79 77 80 63 50 44 43 43 43 42 48 49 48 51 66 78 82 86 85 84
79 97 89 100 96 93 97 97 100 98 96 100 96 96 96 98 100 100 100 89 95 95 91 91 95 96 94 93 90 80 65 78 91 92 74 68 60 56 48 42 37 29 30 37 34 35 35 43 49 63 74 85 87 84
94 98 96 92 96 90 95 98 99 97 95 100 99 100 100 100 100 97 89 89 89 90 89 88 86 92 94 90 93 95 68 60 75 82 68 56 49 54 71 72 70 35 29 27 30 34 36 40 45 51 61 63 80 90
100 100 96 79 87 90 94 88 84 92 95 96 98 100 98 94 94 81 88 93 86 53 48 55 59 70 77 63 56 64 69 71 58 58 49 38 32 29 29 42 56 31 33 39 45 48 52 53 56 59 60 60 64 67
92 93 93 98 96 96 92 96 94 94 92 90 87 99 92 86 80 84 82 46 44 49 52 48 46 47 47 43 46 57 63 56 62 59 53 48 45 41 37 36 37 39 42 49 53 58 62 70 78 78 81 81 74 72
97 93 88 98 97 96 92 89 90 92 82 91 91 91 87 84 86 84 48 48 54 57 54 55 52 60 56 52 49 52 56 63 61 68 70 76 83 44 46 50 54 59 63 63 62 63 67 80 83 86 86 88 87 97
97 95 94 98 95 94 92 93 93 96 92 88 88 93 93 91 62 58 55 58 57 54 60 65 65 67 72 77 74 55 56 61 64 67 81 79 79 73 70 66 65 65 72 77 77 73 72 74 75 76 79 84 93 97
92 91 93 97 95 95 96 95 94 91 95 97 100 96 92 96 72 65 62 62 64 62 56 60 56 58 63 68 78 93 84 66 76 86 89 84 80 76 72 70 69 71 77 83 88 89 86 90 94 93 90 86 78 94
98 95 92 88 87 95 96 96 100 95 98 99 96 100 95 94 88 89 62 63 60 58 68 65 66 62 62 68 74 81 92 83 77 77 78 82 88 90 91 95 96 95 95 96 96 100 100 100 100 100 100 97 92 88
98 100 100 99 99 95 97 90 95 96 97 98 97 99 99 97 78 85 62 65 66 70 75 64 63 64 69 74 77 82 93 94 93 94 97 100 100 100 98 96 91 90 92 95 94 96 100 100 100 99 99 99 97 94